This is the latest recevied weather packets stored in our database for station/object KD7ECD. If no packets are shown the sender has not sent any weather packets the latest 10 day(s).
| Time | Temp. | Humidity | Pressure | Rain* | Wind** | Luminosity | Snow |
|---|---|---|---|---|---|---|---|
| 1777516489 | 17.78° C | 63% | 1018.2 hPa | 0 mm | - | 16 W/m² | - |
| 1777515889 | 18.33° C | 63% | 1018 hPa | 0 mm | - | 26 W/m² | - |
| 1777515288 | 18.89° C | 62% | 1018.1 hPa | 0 mm | - | 30 W/m² | - |
| 1777514686 | 18.89° C | 61% | 1018.1 hPa | 0 mm | - | 35 W/m² | - |
| 1777514086 | 19.44° C | 59% | 1017.9 hPa | 0 mm | - | 55 W/m² | - |
| 1777513480 | 20° C | 59% | 1017.8 hPa | 0 mm | - | 102 W/m² | - |
| 1777512878 | 21.11° C | 57% | 1017.9 hPa | 0 mm | - | 168 W/m² | - |
| 1777512277 | 21.11° C | 57% | 1017.8 hPa | 0 mm | - | 168 W/m² | - |
| 1777511673 | 21.67° C | 56% | 1017.9 hPa | 0 mm | - | 55 W/m² | - |
| 1777511072 | 22.22° C | 49% | 1018 hPa | 0 mm | - | 246 W/m² | - |
| 1777510471 | 22.22° C | 49% | 1017.8 hPa | 0 mm | - | 229 W/m² | - |
| 1777509870 | 22.22° C | 50% | 1017.7 hPa | 0 mm | - | 89 W/m² | - |
| 1777509267 | 22.78° C | 52% | 1017.9 hPa | 0 mm | - | 326 W/m² | - |
| 1777508667 | 22.78° C | 52% | 1017.7 hPa | 0 mm | - | 216 W/m² | - |
| 1777508068 | 22.78° C | 52% | 1017.8 hPa | 0 mm | - | 277 W/m² | - |
| 1777507467 | 22.78° C | 53% | 1017.8 hPa | 0 mm | - | 388 W/m² | - |
| 1777506868 | 22.78° C | 52% | 1018 hPa | 0 mm | - | 394 W/m² | - |
| 1777506266 | 22.78° C | 49% | 1017.8 hPa | 0 mm | - | 380 W/m² | - |
| 1777505664 | 23.89° C | 48% | 1017.8 hPa | 0 mm | - | 332 W/m² | - |
| 1777505064 | 23.89° C | 49% | 1018 hPa | 0 mm | - | 337 W/m² | - |
| 1777504464 | 23.89° C | 51% | 1017.9 hPa | 0 mm | - | 376 W/m² | - |
| 1777503861 | 23.89° C | 50% | 1018.1 hPa | 0 mm | - | 391 W/m² | - |
| 1777503261 | 23.89° C | 53% | 1018.1 hPa | 0 mm | - | 448 W/m² | - |
| 1777502660 | 23.89° C | 52% | 1018.2 hPa | 0 mm | - | 621 W/m² | - |
| 1777502059 | 23.89° C | 54% | 1018.5 hPa | 0 mm | - | 576 W/m² | - |
* Rain latest hour (hover to see other rain measurements)
** Current wind speed in m/s (hover to see current wind gust speed)